CZ-6A DEB, 61435

Orbit data source: Space-Track

CZ-6A DEB, 61435 is space debris in LEO originally from a launch on Tue, 06 Aug 2024 UTC launched from the Taiyaun Space Center, China (TSC). Debris objects in space refer to the collection of defunct objects orbiting the Earth. Examples of debris include non-operational satellites, rocket bodies, and fragments generated from explosions, collisions, or faulty payload assembly.

Loading next visibility...
Identifier
61435, 2024-140ZC
Orbit
LEO
Country
Flag of CNCN / PRC
Related business
Manufacturer
SAST
Mission
Spacecraft
Bus & Motor
Unknown
Mass
Unknown
Launch date (UTC)
2024-08-06 (1 year ago)
Launch vehicle
Unknown
Launch site
Taiyaun Space Center, China (TSC)
Object type
Payload
Rocket body
Debris
Shape & HBR
Unknown shape, 0.1 m
Radar Cross Section
Small (<0.1 m²)

Expand to show TLE details & history
Last TLE update: 1 day ago

TLE from 1 day ago
0 CZ-6A DEB
1 61435U 24140ZC  25312.70124485  .00005456  00000-0  10798-2 0  9991
2 61435  88.8755 289.4751 0106481 272.5697  86.3328 14.58634156 64638
Epoch: 2025-11-08T16:49Z
TLE epoch observation values (Epoch: 2025-11-08T16:49:47.555Z)
Latitude
-0.00007°
Longitude
-11.10013°
Altitude
696.675 km
Speed
7.51 km/s
True Right ascension
19h 17m 54s
True Declination
0° 00' 00"
Sunlit
Object was in daylight at epoch
Visualization orbit readout
Latitude
Unknown
Longitude
Unknown
Altitude
Unknown
Speed
Unknown
Apparent Right ascension
Unknown
Apparent Declination
Unknown
Sunlit
N/A
Visualization observer readout
Local Sidereal Time
19:42:45
Azimuth
Unknown
Elevation
Unknown
Doppler factor
Unknown
Orbital elements
Apogee altitude
769.794 km
Perigee altitude
619.174 km
Semi-major axis
7,072.621 km
Eccentricity
0.01065
Inclination
88.8755°
RAAN
289.4751°
Arg. of periapsis
272.5697°
True anomaly
87.55143°
Mean anomaly
86.3328°
Eccentric anomaly
86.94202°
Mean motion
3.64899 °/min
Orbital period
98.66 mins
BSTAR
0.0010798
Loading maneuver chart data...
Computing Atmospheric mass density...

Documentation

Showing up to 5 results
|